Home > Weather > Cuxhaven > Past weeks

Flag for Germany Past Weather in Cuxhaven, Lower Saxony, Germany — Yesterday and Last 2 Weeks

Now
73 °F

Passing clouds.


Feels Like: 74 °F
Forecast: 62 / 74 °F
Wind: 10 mph from West

Location: Nordholz

Current Time: Jul 24, 2016 at 3:03:55 PM

Latest Report: Jul 24, 2016 at 2:20 PM


Visibility: N/A

Pressure: 30.09 "Hg

Humidity: 78%

Dew Point: 66 °F

Location of CuxhavenLocation

Past Weather in Cuxhaven — Graph

°F

Cuxhaven Temperature Yesterday

Maximum temperature yesterday: 81 °F (at 4:20 PM)
Minimum temperature yesterday: 64 °F (at 12:20 AM)
Average temperature yesterday: 71 °F

High & Low Weather Summary for the Past Weeks

 TemperatureHumidityPressure
High84 °F (Jul 20, 4:20 PM)100% (Jul 9, 9:49 PM)30.21 "Hg (Jul 9, 9:49 PM)
Low52 °F (Jul 14, 3:20 AM)45% (Jul 20, 4:20 PM)29.68 "Hg (Jul 11, 3:20 AM)
Average65 °F80%30.01 "Hg
* Reported Jul 9 1:20 PM — Jul 24 1:20 PM, Cuxhaven, Weather by CustomWeather, © 2016

Note: Actual official high and low records may vary slightly from our data, if they occured in-between our weather recording intervals... More about our weather records

Advertising

Cuxhaven Weather History for the Previous 24 Hours

Scroll right to see more
 ConditionsComfort  
Time TempWeatherWind HumidityBarometerVisibility
1:20 PM
Sun, Jul 24
73 °FPassing clouds.8 mph78%30.09 "HgN/A
12:20 PM75 °FPassing clouds.8 mph74%30.09 "HgN/A
11:20 AM73 °FPassing clouds.8 mph78%30.09 "HgN/A
10:20 AM72 °FPassing clouds.7 mph78%30.09 "HgN/A
9:20 AM68 °FFog.3 mph94%30.09 "Hg2 mi
9:02 AM68 °FFog.2 mph94%30.09 "Hg1 mi
8:20 AM64 °FFog.No wind94%30.09 "Hg1 mi
7:49 AM64 °FFog.No wind94%30.09 "Hg0 mi
7:20 AM64 °FFog.No wind94%30.09 "Hg1 mi
6:20 AM63 °FFog.No wind100%30.09 "Hg0 mi
5:20 AM64 °FFog.2 mph94%30.09 "Hg0 mi
4:20 AM61 °FFog.2 mph100%30.09 "Hg0 mi
3:20 AM61 °FFog.3 mph94%30.09 "Hg0 mi
2:20 AM63 °FFog.No wind94%30.09 "HgN/A
1:20 AM64 °FPassing clouds.No wind94%30.09 "HgN/A
12:20 AM66 °FPassing clouds.2 mph94%30.09 "HgN/A
11:20 PM
Sat, Jul 23
68 °FPassing clouds.2 mph88%30.09 "HgN/A
10:20 PM70 °FScattered clouds.2 mph83%30.09 "HgN/A
9:20 PM72 °FScattered clouds.3 mph83%30.09 "HgN/A
8:20 PM77 °FScattered clouds.2 mph65%30.09 "HgN/A
7:20 PM77 °FBroken clouds.8 mph69%30.09 "HgN/A
6:20 PM81 °FBroken clouds.5 mph51%30.07 "HgN/A
5:20 PM79 °FBroken clouds.5 mph65%30.09 "HgN/A
4:20 PM81 °FBroken clouds.6 mph45%30.09 "HgN/A
3:20 PM79 °FPartly sunny.5 mph48%30.09 "HgN/A
Weather by CustomWeather, © 2016

See weather overviewHow to use our weather pages